| time (UTC) | temp F | wind direction | speed MPH | gust MPH | rain 1hr in | rain 24hr in | rain mn in | humidity % | barometer mb |
| 20260506164959 | 65 | 11 | 0.0 | 2.0 | 0.00 | 0.00 | 0.00 | 94 | 1013.2 |
| 20260506164002 | 64 | 13 | 0.0 | 1.0 | 0.00 | 0.00 | 0.00 | 94 | 1013.3 |
| 20260506163500 | 64 | 59 | 0.0 | 1.0 | 0.00 | 0.00 | 0.00 | 93 | 1013.5 |
| 20260506163000 | 64 | 355 | 0.0 | 2.0 | 0.00 | 0.00 | 0.00 | 92 | 1013.8 |
| 20260506162503 | 64 | 355 | 0.0 | 5.0 | 0.00 | 0.00 | 0.00 | 91 | 1014.1 |
| 20260506162003 | 65 | 19 | 1.0 | 12.0 | 0.00 | 0.00 | 0.00 | 90 | 1014.1 |
| 20260506161500 | 66 | 343 | 0.0 | 12.0 | 0.00 | 0.00 | 0.00 | 90 | 1014.1 |
| 20260506161000 | 66 | 322 | 0.0 | 3.0 | 0.00 | 0.00 | 0.00 | 91 | 1014.1 |
| 20260506160500 | 66 | 17 | 0.0 | 3.0 | 0.00 | 0.00 | 0.00 | 90 | 1013.8 |
| 20260506155959 | 67 | 325 | 0.0 | 3.0 | 0.00 | 0.00 | 0.00 | 90 | 1013.9 |
| 20260506155501 | 68 | 9 | 0.0 | 3.0 | 0.00 | 0.00 | 0.00 | 88 | 1014.1 |
| 20260506155000 | 69 | 37 | 0.0 | 3.0 | 0.00 | 0.00 | 0.00 | 88 | 1013.7 |
| 20260506153959 | 73 | 293 | 0.0 | 3.0 | 0.00 | 0.00 | 0.00 | 85 | 1013.2 |
| 20260506153500 | 75 | 351 | 0.0 | 2.0 | 0.00 | 0.00 | 0.00 | 82 | 1013.2 |
| 20260506153000 | 77 | 313 | 0.0 | 2.0 | 0.00 | 0.00 | 0.00 | 85 | 1013.3 |
| 20260506152501 | 77 | 81 | 0.0 | 0.0 | 0.00 | 0.00 | 0.00 | 91 | 1012.6 |
| 20260506152002 | 77 | 81 | 0.0 | 0.0 | 0.00 | 0.00 | 0.00 | 90 | 1012.1 |
| 20260506151501 | 78 | 81 | 0.0 | 0.0 | 0.00 | 0.00 | 0.00 | 89 | 1012.3 |
| 20260506150500 | 78 | 81 | 0.0 | 0.0 | 0.00 | 0.00 | 0.00 | 89 | 1012.3 |
| 20260506145959 | 78 | 81 | 0.0 | 0.0 | 0.00 | 0.00 | 0.00 | 89 | 1012.1 |
| 20260506145502 | 78 | 81 | 0.0 | 0.0 | 0.00 | 0.00 | 0.00 | 89 | 1011.9 |
| 20260506145000 | 78 | 81 | 0.0 | 0.0 | 0.00 | 0.00 | 0.00 | 89 | 1011.5 |
| 20260506144501 | 78 | 81 | 0.0 | 1.0 | 0.00 | 0.00 | 0.00 | 89 | 1011.6 |
| 20260506144001 | 78 | 84 | 0.0 | 0.0 | 0.00 | 0.00 | 0.00 | 90 | 1011.4 |
| 20260506143459 | 78 | 84 | 0.0 | 0.0 | 0.00 | 0.00 | 0.00 | 89 | 1011.3 |
| 20260506143001 | 78 | 84 | 0.0 | 1.0 | 0.00 | 0.00 | 0.00 | 90 | 1011.3 |
| 20260506141503 | 77 | 82 | 0.0 | 1.0 | 0.00 | 0.00 | 0.00 | 91 | 1011.0 |
| 20260506141000 | 77 | 82 | 0.0 | 0.0 | 0.00 | 0.00 | 0.00 | 92 | 1011.2 |
| 20260506140501 | 77 | 82 | 0.0 | 0.0 | 0.00 | 0.00 | 0.00 | 92 | 1011.6 |
| 20260506140002 | 76 | 82 | 0.0 | 0.0 | 0.00 | 0.00 | 0.00 | 93 | 1011.4 |
| 20260506135502 | 76 | 82 | 0.0 | 0.0 | 0.00 | 0.00 | 0.00 | 93 | 1011.2 |
| 20260506135000 | 76 | 82 | 0.0 | 0.0 | 0.00 | 0.00 | 0.00 | 93 | 1010.7 |
| 20260506134501 | 76 | 82 | 0.0 | 0.0 | 0.00 | 0.00 | 0.00 | 93 | 1010.6 |
| 20260506133500 | 76 | 82 | 0.0 | 0.0 | 0.00 | 0.00 | 0.00 | 93 | 1010.7 |
| 20260506133002 | 75 | 82 | 0.0 | 0.0 | 0.00 | 0.00 | 0.00 | 93 | 1010.8 |
| 20260506132502 | 75 | 82 | 0.0 | 0.0 | 0.00 | 0.00 | 0.00 | 94 | 1010.6 |
| 20260506132000 | 75 | 82 | 0.0 | 0.0 | 0.00 | 0.00 | 0.00 | 94 | 1010.6 |
| 20260506131501 | 75 | 97 | 0.0 | 1.0 | 0.00 | 0.00 | 0.00 | 94 | 1010.6 |
| 20260506131004 | 75 | 97 | 0.0 | 1.0 | 0.00 | 0.00 | 0.00 | 95 | 1010.5 |
| 20260506130502 | 75 | 97 | 0.0 | 0.0 | 0.00 | 0.00 | 0.00 | 94 | 1010.4 |
| 20260506130000 | 75 | 97 | 0.0 | 0.0 | 0.00 | 0.00 | 0.00 | 94 | 1010.4 |
| 20260506125502 | 75 | 99 | 0.0 | 0.0 | 0.00 | 0.00 | 0.00 | 94 | 1010.2 |
| 20260506124959 | 75 | 101 | 0.0 | 0.0 | 0.00 | 0.00 | 0.00 | 94 | 1010.3 |
| 20260506124459 | 75 | 101 | 0.0 | 0.0 | 0.00 | 0.00 | 0.00 | 94 | 1010.3 |
| 20260506124000 | 75 | 101 | 0.0 | 0.0 | 0.00 | 0.00 | 0.00 | 94 | 1010.2 |
| 20260506123459 | 75 | 103 | 0.0 | 0.0 | 0.00 | 0.00 | 0.00 | 94 | 1010.3 |
| 20260506123002 | 75 | 194 | 0.0 | 0.0 | 0.00 | 0.00 | 0.00 | 94 | 1010.3 |
| 20260506122500 | 75 | 196 | 0.0 | 0.0 | 0.00 | 0.00 | 0.00 | 94 | 1010.2 |
| 20260506121959 | 75 | 196 | 0.0 | 0.0 | 0.00 | 0.00 | 0.00 | 94 | 1010.2 |
| 20260506121501 | 75 | 196 | 0.0 | 0.0 | 0.00 | 0.00 | 0.00 | 94 | 1010.4 |
| 20260506121002 | 75 | 196 | 0.0 | 0.0 | 0.00 | 0.00 | 0.00 | 94 | 1010.2 |
| 20260506120500 | 75 | 200 | 0.0 | 0.0 | 0.00 | 0.00 | 0.00 | 93 | 1010.2 |
| 20260506120003 | 75 | 200 | 0.0 | 0.0 | 0.00 | 0.00 | 0.00 | 93 | 1010.1 |
| 20260506115501 | 75 | 200 | 0.0 | 0.0 | 0.00 | 0.00 | 0.00 | 93 | 1010.0 |
| 20260506114500 | 75 | 200 | 0.0 | 0.0 | 0.00 | 0.00 | 0.00 | 93 | 1009.9 |
| 20260506114001 | 75 | 200 | 0.0 | 0.0 | 0.00 | 0.00 | 0.00 | 93 | 1010.0 |
| 20260506113459 | 75 | 199 | 0.0 | 0.0 | 0.00 | 0.00 | 0.00 | 93 | 1010.0 |
| 20260506113000 | 75 | 200 | 0.0 | 3.0 | 0.00 | 0.00 | 0.00 | 93 | 1010.0 |
| 20260506112500 | 75 | 199 | 0.0 | 2.0 | 0.00 | 0.00 | 0.00 | 93 | 1010.0 |
| 20260506112002 | 75 | 169 | 0.0 | 0.0 | 0.00 | 0.00 | 0.00 | 93 | 1010.1 |
| 20260506111001 | 75 | 145 | 0.0 | 0.0 | 0.00 | 0.00 | 0.00 | 93 | 1010.0 |
| 20260506110500 | 75 | 136 | 0.0 | 0.0 | 0.00 | 0.00 | 0.00 | 93 | 1010.0 |
| 20260506110000 | 75 | 136 | 0.0 | 0.0 | 0.00 | 0.00 | 0.00 | 93 | 1010.0 |
| 20260506105459 | 75 | 136 | 0.0 | 0.0 | 0.00 | 0.00 | 0.00 | 93 | 1010.0 |
| 20260506105000 | 75 | 152 | 0.0 | 0.0 | 0.00 | 0.00 | 0.00 | 93 | 1009.9 |
| 20260506104500 | 75 | 152 | 0.0 | 0.0 | 0.00 | 0.00 | 0.00 | 93 | 1009.9 |
| 20260506104002 | 75 | 152 | 0.0 | 0.0 | 0.00 | 0.00 | 0.00 | 93 | 1009.9 |
| 20260506103501 | 75 | 152 | 0.0 | 0.0 | 0.00 | 0.00 | 0.00 | 93 | 1009.7 |
| 20260506102959 | 75 | 178 | 0.0 | 0.0 | 0.00 | 0.00 | 0.00 | 94 | 1009.6 |
| 20260506102001 | 75 | 179 | 0.0 | 0.0 | 0.00 | 0.00 | 0.00 | 94 | 1009.6 |
| 20260506101001 | 75 | 176 | 0.0 | 1.0 | 0.00 | 0.00 | 0.00 | 94 | 1009.6 |
| 20260506100501 | 75 | 180 | 0.0 | 0.0 | 0.00 | 0.00 | 0.00 | 94 | 1009.5 |
| 20260506100000 | 75 | 203 | 0.0 | 0.0 | 0.00 | 0.00 | 0.00 | 94 | 1009.4 |
| 20260506095002 | 75 | 189 | 0.0 | 2.0 | 0.00 | 0.00 | 0.00 | 94 | 1009.3 |
| 20260506094500 | 75 | 207 | 0.0 | 1.0 | 0.00 | 0.00 | 0.00 | 94 | 1009.2 |
| 20260506094000 | 75 | 208 | 0.0 | 0.0 | 0.00 | 0.00 | 0.00 | 94 | 1009.0 |
| 20260506093000 | 75 | 200 | 0.0 | 0.0 | 0.00 | 0.00 | 0.00 | 94 | 1008.9 |
| 20260506092506 | 75 | 200 | 0.0 | 0.0 | 0.00 | 0.00 | 0.00 | 94 | 1008.9 |
| 20260506092002 | 75 | 172 | 0.0 | 2.0 | 0.00 | 0.00 | 0.00 | 94 | 1008.9 |
| 20260506091502 | 75 | 190 | 0.0 | 0.0 | 0.00 | 0.00 | 0.00 | 94 | 1008.9 |
| 20260506091003 | 75 | 148 | 0.0 | 1.0 | 0.00 | 0.00 | 0.00 | 94 | 1008.8 |
| 20260506090501 | 75 | 107 | 0.0 | 1.0 | 0.00 | 0.00 | 0.00 | 94 | 1008.8 |
| 20260506090002 | 75 | 194 | 0.0 | 0.0 | 0.00 | 0.00 | 0.00 | 94 | 1008.7 |
| 20260506085502 | 75 | 152 | 0.0 | 1.0 | 0.00 | 0.00 | 0.00 | 94 | 1008.8 |
| 20260506084459 | 75 | 188 | 0.0 | 1.0 | 0.00 | 0.00 | 0.00 | 94 | 1008.9 |
| 20260506084001 | 75 | 188 | 0.0 | 3.0 | 0.00 | 0.00 | 0.00 | 94 | 1008.9 |
| 20260506083459 | 75 | 120 | 0.0 | 3.0 | 0.00 | 0.00 | 0.00 | 94 | 1008.8 |
| 20260506083001 | 75 | 163 | 0.0 | 3.0 | 0.00 | 0.00 | 0.00 | 94 | 1008.8 |
| 20260506082459 | 75 | 178 | 0.0 | 0.0 | 0.00 | 0.00 | 0.00 | 93 | 1008.8 |
| 20260506082000 | 75 | 148 | 0.0 | 1.0 | 0.00 | 0.00 | 0.00 | 93 | 1008.7 |
| 20260506081500 | 75 | 125 | 0.0 | 1.0 | 0.00 | 0.00 | 0.00 | 93 | 1008.8 |
| 20260506081002 | 75 | 183 | 0.0 | 1.0 | 0.00 | 0.00 | 0.00 | 93 | 1008.8 |
| 20260506073503 | 75 | 187 | 0.0 | 0.0 | 0.00 | 0.00 | 0.00 | 93 | 1009.1 |
| 20260506073001 | 75 | 166 | 0.0 | 3.0 | 0.00 | 0.00 | 0.00 | 93 | 1009.1 |
| 20260506072000 | 75 | 177 | 0.0 | 1.0 | 0.00 | 0.00 | 0.00 | 93 | 1009.3 |
| 20260506071503 | 75 | 185 | 0.0 | 4.0 | 0.00 | 0.00 | 0.00 | 93 | 1009.2 |
| 20260506071001 | 75 | 174 | 0.0 | 4.0 | 0.00 | 0.00 | 0.00 | 93 | 1009.2 |
| 20260506070502 | 76 | 136 | 0.0 | 4.0 | 0.00 | 0.00 | 0.00 | 93 | 1009.3 |
| 20260506062002 | 76 | 192 | 0.0 | 3.0 | 0.00 | 0.00 | 0.00 | 92 | 1009.4 |
| 20260506061001 | 75 | 199 | 0.0 | 0.0 | 0.00 | 0.00 | 0.00 | 92 | 1009.4 |
| 20260506060502 | 75 | 171 | 0.0 | 3.0 | 0.00 | 0.00 | 0.00 | 93 | 1009.3 |
| 20260506051000 | 76 | 190 | 0.0 | 1.0 | 0.00 | 0.00 | 0.00 | 92 | 1009.4 |
| 20260506050501 | 76 | 171 | 0.0 | 1.0 | 0.00 | 0.00 | 0.00 | 92 | 1009.5 |
| 20260506044500 | 76 | 97 | 0.0 | 1.0 | 0.00 | 0.00 | 0.00 | 91 | 1009.4 |
| 20260506044003 | 76 | 126 | 0.0 | 4.0 | 0.00 | 0.00 | 0.00 | 91 | 1009.4 |
| 20260506043002 | 76 | 113 | 0.0 | 1.0 | 0.00 | 0.00 | 0.00 | 91 | 1009.4 |
| 20260506042503 | 76 | 201 | 0.0 | 3.0 | 0.00 | 0.00 | 0.00 | 91 | 1009.3 |
| 20260506042002 | 76 | 168 | 0.0 | 1.0 | 0.00 | 0.00 | 0.00 | 91 | 1009.2 |
| 20260506041501 | 76 | 150 | 0.0 | 1.0 | 0.00 | 0.00 | 0.00 | 91 | 1009.1 |
| 20260506041000 | 76 | 107 | 0.0 | 3.0 | 0.00 | 0.00 | 0.00 | 91 | 1009.2 |
| 20260506040501 | 76 | 149 | 0.0 | 3.0 | 0.00 | 0.00 | 0.00 | 91 | 1009.0 |
| 20260506040003 | 76 | 201 | 0.0 | 0.0 | 0.00 | 0.00 | 0.00 | 91 | 1009.1 |
| 20260506035001 | 77 | 138 | 0.0 | 1.0 | 0.00 | 0.00 | 0.00 | 90 | 1009.0 |
| 20260506034501 | 77 | 161 | 0.0 | 2.0 | 0.00 | 0.00 | 0.00 | 90 | 1009.0 |
| 20260506034001 | 77 | 188 | 0.0 | 0.0 | 0.00 | 0.00 | 0.00 | 90 | 1008.9 |
| 20260506033501 | 77 | 118 | 0.0 | 0.0 | 0.00 | 0.00 | 0.00 | 90 | 1009.0 |
| 20260506033003 | 77 | 112 | 0.0 | 1.0 | 0.00 | 0.00 | 0.00 | 90 | 1008.9 |
| 20260506032001 | 77 | 102 | 0.0 | 1.0 | 0.00 | 0.00 | 0.00 | 89 | 1008.7 |
| 20260506031504 | 77 | 202 | 0.0 | 1.0 | 0.00 | 0.00 | 0.00 | 89 | 1008.5 |
| 20260506031001 | 77 | 123 | 0.0 | 1.0 | 0.00 | 0.00 | 0.00 | 89 | 1008.4 |
| 20260506030004 | 78 | 195 | 0.0 | 0.0 | 0.00 | 0.00 | 0.00 | 88 | 1008.4 |
| 20260506025500 | 78 | 116 | 0.0 | 1.0 | 0.00 | 0.00 | 0.00 | 88 | 1008.3 |
| 20260506025002 | 78 | 132 | 0.0 | 1.0 | 0.00 | 0.00 | 0.00 | 87 | 1008.3 |
| 20260506024500 | 78 | 133 | 0.0 | 1.0 | 0.00 | 0.00 | 0.00 | 87 | 1008.2 |
| 20260506024004 | 78 | 107 | 0.0 | 1.0 | 0.00 | 0.00 | 0.00 | 87 | 1008.1 |
| 20260506023500 | 78 | 107 | 0.0 | 1.0 | 0.00 | 0.00 | 0.00 | 86 | 1007.9 |
| 20260506023001 | 79 | 101 | 0.0 | 1.0 | 0.00 | 0.00 | 0.00 | 85 | 1007.8 |
| 20260506022501 | 79 | 102 | 0.0 | 1.0 | 0.00 | 0.00 | 0.00 | 85 | 1007.8 |
| 20260506022001 | 79 | 104 | 0.0 | 1.0 | 0.00 | 0.00 | 0.00 | 84 | 1007.7 |
| 20260506021502 | 79 | 113 | 0.0 | 1.0 | 0.00 | 0.00 | 0.00 | 84 | 1007.6 |
| 20260506021001 | 79 | 96 | 0.0 | 1.0 | 0.00 | 0.00 | 0.00 | 83 | 1007.6 |
| 20260506020501 | 79 | 98 | 0.0 | 1.0 | 0.00 | 0.00 | 0.00 | 83 | 1007.5 |
| 20260506020003 | 80 | 108 | 0.0 | 0.0 | 0.00 | 0.00 | 0.00 | 83 | 1007.5 |
| 20260506015500 | 80 | 108 | 0.0 | 0.0 | 0.00 | 0.00 | 0.00 | 82 | 1007.3 |
| 20260506015003 | 80 | 108 | 0.0 | 1.0 | 0.00 | 0.00 | 0.00 | 82 | 1007.3 |
| 20260506014504 | 80 | 106 | 0.0 | 1.0 | 0.00 | 0.00 | 0.00 | 82 | 1007.2 |
| 20260506014002 | 80 | 106 | 0.0 | 1.0 | 0.00 | 0.00 | 0.00 | 81 | 1007.3 |
| 20260506013001 | 81 | 107 | 0.0 | 0.0 | 0.00 | 0.00 | 0.00 | 81 | 1007.4 |
| 20260506012504 | 81 | 96 | 0.0 | 1.0 | 0.00 | 0.00 | 0.00 | 80 | 1007.2 |
| 20260506012000 | 81 | 96 | 0.0 | 1.0 | 0.00 | 0.00 | 0.00 | 80 | 1007.2 |
| 20260506011001 | 82 | 186 | 0.0 | 0.0 | 0.00 | 0.00 | 0.00 | 79 | 1007.3 |
| 20260506010501 | 82 | 186 | 0.0 | 0.0 | 0.00 | 0.00 | 0.00 | 78 | 1007.3 |
| 20260506010002 | 82 | 186 | 0.0 | 3.0 | 0.00 | 0.00 | 0.00 | 78 | 1007.3 |
| 20260506005502 | 82 | 188 | 0.0 | 3.0 | 0.00 | 0.00 | 0.00 | 78 | 1007.4 |
| 20260506005001 | 82 | 203 | 0.0 | 0.0 | 0.00 | 0.00 | 0.00 | 77 | 1007.3 |
| 20260506004001 | 83 | 205 | 0.0 | 0.0 | 0.00 | 0.00 | 0.00 | 77 | 1007.3 |
| 20260506003500 | 83 | 205 | 0.0 | 0.0 | 0.00 | 0.00 | 0.00 | 77 | 1007.2 |
| 20260506002501 | 83 | 205 | 0.0 | 0.0 | 0.00 | 0.00 | 0.00 | 77 | 1007.1 |
| 20260506002003 | 83 | 206 | 0.0 | 0.0 | 0.00 | 0.00 | 0.00 | 76 | 1007.1 |
| 20260506001001 | 83 | 192 | 0.0 | 0.0 | 0.00 | 0.00 | 0.00 | 76 | 1007.0 |
| 20260506000503 | 83 | 200 | 0.0 | 2.0 | 0.00 | 0.00 | 0.00 | 75 | 1007.0 |
| 20260505235500 | 84 | 178 | 0.0 | 1.0 | 0.00 | 0.00 | 0.00 | 76 | 1007.0 |
| 20260505235003 | 84 | 199 | 0.0 | 0.0 | 0.00 | 0.00 | 0.00 | 75 | 1007.1 |
| 20260505234500 | 84 | 186 | 0.0 | 2.0 | 0.00 | 0.00 | 0.00 | 75 | 1006.8 |
| 20260505234000 | 84 | 202 | 0.0 | 2.0 | 0.00 | 0.00 | 0.00 | 74 | 1006.8 |
| 20260505233503 | 84 | 182 | 0.0 | 0.0 | 0.00 | 0.00 | 0.00 | 74 | 1006.7 |
| 20260505233000 | 84 | 207 | 0.0 | 0.0 | 0.00 | 0.00 | 0.00 | 73 | 1006.8 |
| 20260505232502 | 84 | 161 | 0.0 | 0.0 | 0.00 | 0.00 | 0.00 | 73 | 1006.8 |
| 20260505232000 | 84 | 186 | 0.0 | 0.0 | 0.00 | 0.00 | 0.00 | 73 | 1006.9 |
| 20260505230500 | 84 | 178 | 0.0 | 4.0 | 0.00 | 0.00 | 0.00 | 73 | 1006.7 |
| 20260505230001 | 85 | 112 | 0.0 | 2.0 | 0.00 | 0.00 | 0.00 | 73 | 1006.7 |
| 20260505225503 | 85 | 99 | 0.0 | 2.0 | 0.00 | 0.00 | 0.00 | 72 | 1006.6 |
| 20260505225001 | 85 | 167 | 0.0 | 2.0 | 0.00 | 0.00 | 0.00 | 72 | 1006.6 |
| 20260505224501 | 85 | 108 | 0.0 | 0.0 | 0.00 | 0.00 | 0.00 | 72 | 1006.6 |
| 20260505224002 | 85 | 113 | 0.0 | 2.0 | 0.00 | 0.00 | 0.00 | 71 | 1006.5 |
| 20260505223500 | 85 | 115 | 0.0 | 3.0 | 0.00 | 0.00 | 0.00 | 71 | 1006.6 |
| 20260505223001 | 85 | 127 | 0.0 | 3.0 | 0.00 | 0.00 | 0.00 | 71 | 1006.5 |
| 20260505222501 | 86 | 155 | 0.0 | 4.0 | 0.00 | 0.00 | 0.00 | 71 | 1006.6 |
| 20260505221501 | 86 | 189 | 0.0 | 1.0 | 0.00 | 0.00 | 0.00 | 71 | 1006.6 |
| 20260505221002 | 86 | 188 | 0.0 | 3.0 | 0.00 | 0.00 | 0.00 | 70 | 1006.7 |
| 20260505220501 | 86 | 215 | 0.0 | 3.0 | 0.00 | 0.00 | 0.00 | 70 | 1006.6 |
| 20260505220002 | 86 | 128 | 0.0 | 4.0 | 0.00 | 0.00 | 0.00 | 69 | 1006.7 |
| 20260505215501 | 87 | 182 | 0.0 | 4.0 | 0.00 | 0.00 | 0.00 | 68 | 1006.8 |
| 20260505215000 | 87 | 111 | 0.0 | 4.0 | 0.00 | 0.00 | 0.00 | 68 | 1007.0 |
| 20260505214500 | 88 | 182 | 0.0 | 0.0 | 0.00 | 0.00 | 0.00 | 67 | 1007.2 |
| 20260505213503 | 88 | 172 | 0.0 | 0.0 | 0.00 | 0.00 | 0.00 | 65 | 1007.2 |
| 20260505213001 | 88 | 177 | 0.0 | 0.0 | 0.00 | 0.00 | 0.00 | 66 | 1007.3 |
| 20260505211500 | 88 | 207 | 0.0 | 11.0 | 0.00 | 0.00 | 0.00 | 66 | 1007.4 |
| 20260505211003 | 88 | 202 | 0.0 | 11.0 | 0.00 | 0.00 | 0.00 | 66 | 1007.3 |
| 20260505210501 | 88 | 209 | 0.0 | 1.0 | 0.00 | 0.00 | 0.00 | 66 | 1007.4 |
| 20260505210000 | 88 | 202 | 0.0 | 0.0 | 0.00 | 0.00 | 0.00 | 67 | 1007.3 |
| 20260505205500 | 88 | 196 | 0.0 | 0.0 | 0.00 | 0.00 | 0.00 | 68 | 1007.4 |
| 20260505204503 | 87 | 200 | 0.0 | 4.0 | 0.00 | 0.00 | 0.00 | 70 | 1007.7 |
| 20260505204002 | 86 | 140 | 0.0 | 3.0 | 0.00 | 0.00 | 0.00 | 71 | 1007.7 |
| 20260505203501 | 86 | 217 | 0.0 | 2.0 | 0.00 | 0.00 | 0.00 | 70 | 1007.8 |
| 20260505203003 | 86 | 189 | 0.0 | 2.0 | 0.00 | 0.00 | 0.00 | 71 | 1008.0 |
| 20260505202502 | 86 | 134 | 0.0 | 0.0 | 0.00 | 0.00 | 0.00 | 71 | 1008.0 |
| 20260505202006 | 85 | 190 | 0.0 | 10.0 | 0.00 | 0.00 | 0.00 | 72 | 1008.3 |
| 20260505201000 | 85 | 169 | 0.0 | 3.0 | 0.00 | 0.00 | 0.00 | 72 | 1008.2 |
| 20260505200003 | 84 | 211 | 0.0 | 1.0 | 0.00 | 0.00 | 0.00 | 73 | 1008.3 |
| 20260505195502 | 84 | 153 | 0.0 | 1.0 | 0.00 | 0.00 | 0.00 | 73 | 1008.4 |
| 20260505195002 | 84 | 182 | 0.0 | 1.0 | 0.00 | 0.00 | 0.00 | 73 | 1008.4 |
| 20260505194459 | 84 | 149 | 0.0 | 1.0 | 0.00 | 0.00 | 0.00 | 73 | 1008.5 |
| 20260505194001 | 84 | 205 | 0.0 | 1.0 | 0.00 | 0.00 | 0.00 | 73 | 1008.6 |
| 20260505193000 | 84 | 202 | 0.0 | 4.0 | 0.00 | 0.00 | 0.00 | 73 | 1008.7 |
| 20260505192459 | 84 | 133 | 0.0 | 4.0 | 0.00 | 0.00 | 0.00 | 74 | 1008.6 |
| 20260505192002 | 84 | 186 | 0.0 | 1.0 | 0.00 | 0.00 | 0.00 | 74 | 1008.5 |
| 20260505191503 | 84 | 204 | 0.0 | 2.0 | 0.00 | 0.00 | 0.00 | 73 | 1008.5 |
| 20260505191003 | 84 | 186 | 0.0 | 2.0 | 0.00 | 0.00 | 0.00 | 73 | 1008.7 |
| 20260505190503 | 84 | 183 | 0.0 | 3.0 | 0.00 | 0.00 | 0.00 | 74 | 1008.8 |
| 20260505185500 | 83 | 174 | 0.0 | 3.0 | 0.00 | 0.00 | 0.00 | 76 | 1008.8 |
| 20260505184459 | 83 | 207 | 0.0 | 0.0 | 0.00 | 0.00 | 0.00 | 76 | 1008.9 |
| 20260505184003 | 82 | 190 | 0.0 | 1.0 | 0.00 | 0.00 | 0.00 | 76 | 1009.1 |
| 20260505183459 | 82 | 179 | 0.0 | 1.0 | 0.00 | 0.00 | 0.00 | 77 | 1009.1 |
| 20260505183003 | 82 | 182 | 0.0 | 0.0 | 0.00 | 0.00 | 0.00 | 77 | 1009.2 |
| 20260505182459 | 81 | 200 | 0.0 | 0.0 | 0.00 | 0.00 | 0.00 | 77 | 1009.2 |
| 20260505181959 | 81 | 194 | 0.0 | 0.0 | 0.00 | 0.00 | 0.00 | 78 | 1009.2 |
| 20260505181502 | 81 | 196 | 0.0 | 0.0 | 0.00 | 0.00 | 0.00 | 78 | 1009.3 |
| 20260505180959 | 80 | 182 | 0.0 | 0.0 | 0.00 | 0.00 | 0.00 | 81 | 1009.3 |
| 20260505175459 | 79 | 202 | 0.0 | 0.0 | 0.00 | 0.00 | 0.00 | 81 | 1009.5 |
| 20260505174959 | 78 | 180 | 0.0 | 0.0 | 0.00 | 0.00 | 0.00 | 82 | 1009.6 |
| 20260505174501 | 78 | 202 | 0.0 | 0.0 | 0.00 | 0.00 | 0.00 | 83 | 1009.7 |
| 20260505173959 | 78 | 219 | 0.0 | 0.0 | 0.00 | 0.00 | 0.00 | 83 | 1009.7 |
| 20260505173501 | 77 | 198 | 0.0 | 0.0 | 0.00 | 0.00 | 0.00 | 83 | 1009.7 |
| 20260505173000 | 77 | 190 | 0.0 | 0.0 | 0.00 | 0.00 | 0.00 | 83 | 1009.8 |
| 20260505172501 | 77 | 178 | 0.0 | 0.0 | 0.00 | 0.00 | 0.00 | 84 | 1009.8 |
| 20260505172001 | 77 | 199 | 0.0 | 0.0 | 0.00 | 0.00 | 0.00 | 85 | 1009.7 |
| 20260505171459 | 76 | 224 | 0.0 | 0.0 | 0.00 | 0.00 | 0.00 | 85 | 1009.8 |
| 20260505171001 | 76 | 205 | 0.0 | 0.0 | 0.00 | 0.00 | 0.00 | 85 | 1009.9 |
| 20260505170503 | 76 | 202 | 0.0 | 0.0 | 0.00 | 0.00 | 0.00 | 85 | 1009.9 |
| 20260505165502 | 76 | 202 | 0.0 | 0.0 | 0.00 | 0.00 | 0.00 | 86 | 1009.8 |